星链-37470(STARLINK-37470)

导读

STARLINK-37470(NORAD编号68820)是美国SpaceX公司星链(Starlink)卫星互联网星座中的一颗低轨通信卫星,隶属于星链第二代卫星组网范畴。星链项目旨在构建全球覆盖的高速卫星互联网,为传统网络覆盖不足区域提供宽带服务,目前该星座规模已超6000颗在轨卫星,占全球 active卫星总数一半以上。作为低轨卫星,STARLINK-37470运行在近地轨道,借助星间激光链路实现数据传输,可为用户提供百兆级下载速率,助力星链实现全球无缝互联网接入覆盖。

基本信息
目录编号:
68820
目录名称:
STARLINK-37470
国际标识:
2026-089U
轨道中心:
EARTH
卫星名称:
星链-37470
卫星全名:
星链-37470(STARLINK-37470)
卫星状态:
在轨 (已飞行135 天)
发射日期:
2026-04-23 UTC
国别 :
美国 (US)
星等 :
--
轨道信息
数据来源 国际轨道数据 AOE轨道数据
星历时间 2026-09-05T09:04:52+0800
19小时前
查看轨道信息
2026-09-03T23:00:00+0800
2天前
查看轨道信息
半长轴 6843.669km 6843.692km
偏心率 0.0002501 0.0002074
轨道倾角 97.284° 97.286°
近地点辐角 97.056° 94.117°
升交点赤经 94.075° 92.675°
平近点角 263.097° 351.863°
近地点 463.82km 464.135km
远地点 467.244km 466.975km
周期 93.906分钟 93.906分钟
每日圈数 15.334488 15.334413
详细信息
固有亮度:
5
最大亮度:
2.5
卫星平台:
Starlink V1.0
覆盖范围:
全球
运营商:
太空探索技术公司
运营商所在国:
美国
制造商(研发单位):
太空探索技术公司
制造商所在国:
美国
使用方式:
暂无
卫星简介
Starlink 计划是 SpaceX 推出的全球卫星互联网项目,通过发射低轨道卫星,为全球尤其是偏远地区提供高速、低延迟的互联网服务。自 2019 年起,Starlink 已部署数千颗卫星,旨在缩小全球数字鸿沟,推动互联网普及。该项目还为军事、航空等行业提供通信支持,带来广泛经济效益。
2D轨道图
3D轨道图
轨道高度分析图
轨道倾角分析图
轨道综合分析图
查看轨道综合分析图
交会数据列表
事件ID 空间交会对象 最接近时刻(TCA) 交会距离 交会风险概率(CRP) 交会风险指数(CRI) 操作
CDM_260906-024404-835906-882022
2026-09-06T
02:44:05+0000
1.534 km
极远距离
6.049206E-6 低风险 0.51
CDM_260830-230605-199606-882021
2026-08-30T
23:06:34+0000
2.216 km
极远距离
2.176221E-6 低风险 0.42
CDM_260908-022706-569506-882021
2026-09-08T
02:27:41+0000
2.744 km
极远距离
1.405537E-6 低风险 0.38
CDM_260907-115905-901406-882021
2026-09-07T
11:59:44+0000
2.875 km
极远距离
1.374037E-6 低风险 0.38
CDM_260907-101806-028906-882021
2026-09-07T
10:18:50+0000
2.975 km
极远距离
1.34783E-6 低风险 0.38
CDM_260905-215806-862806-882021
MISR-C-1 (68628)
2026-09-05T
21:58:40+0000
2.959 km
极远距离
1.314042E-6 低风险 0.37